Location: Bavegemberg
(50.9500°N, 3.8833°E)
Time: 04:42:53
(UTC+00:00)

Cosmos 2360 Rocket - Pass Details

Date: 23 May 2024
Orbit: 832 x 846 km, 71.0° (Epoch: 19 June)

Event Time Altitude Azimuth Distance (km) Brightness Sun altitude
Rises 00:12:25 0° 331° (NNW) 3,416 6.2 -18.1°
Reaches altitude 10° 00:15:20 10° 345° (NNW) 2,479 5.7 -18.0°
Maximum altitude 00:19:58 25° 40° (NE) 1,653 4.4 -17.9°
Drops below altitude 10° 00:24:35 10° 94° (E) 2,471 4.7 -17.8°
Sets 00:27:29 0° 108° (ESE) 3,403 5.3 -17.7°
